This demonstration page uses our WeatherBlox Daily Observations layout. Learn more.

Left ArrowRight Arrow

34.16533, -84.80231

Hourly Observations for June 5, 2019

Temp ( °F °C ) Dew Point ( °F °C ) Humidity (%) Winds ( mph kmh ) Pressure ( in mb ) Visibility ( mi km ) Precip ( " mm )
12:53 am 00:53 Clear 68 20 64 17.8 87 87 Calm 30.02 1017 9 14 0.00 0.00
1:53 am 01:53 Clear 65 18.3 63 17.2 93 93 Calm 30.01 1016 8 13 0.00 0.00
2:53 am 02:53 Partly Cloudy 65 18.3 63 17.2 93 93 Calm 30.00 1016 8 13 0.00 0.00
3:53 am 03:53 Cloudy 68 20 64 17.8 87 87 Calm 29.99 1016 9 14 0.00 0.00
4:53 am 04:53 Partly Cloudy 70 21.1 65 18.3 84 84 E 3 6 29.98 1015 10 16 0.00 0.00
5:53 am 05:53 Clear 69 20.6 64 17.8 84 84 Calm 29.98 1015 10 16 0.00 0.00
6:53 am 06:53 Sunny 69 20.6 64 17.8 84 84 Calm 30.00 1016 9 14 0.00 0.00
7:53 am 07:53 Sunny 70 21.1 65 18.3 84 84 Calm 30.00 1016 8 13 0.00 0.00
8:53 am 08:53 Mostly Cloudy 72 22.2 66 18.9 82 82 E 5 7 30.00 1016 9 14 0.00 0.00
9:53 am 09:53 Partly Cloudy 75 23.9 67 19.4 76 76 ESE 6 9 30.00 1016 9 14 0.00 0.00
10:53 am 10:53 Partly Cloudy 76 24.4 68 20 77 77 VRB 5 7 29.99 1016 9 14 0.00 0.00
11:53 am 11:53 Mostly Cloudy 76 24.4 69 20.6 79 79 SE 5 7 30.00 1016 9 14 0.00 0.00
12:53 pm 12:53 Cloudy with Light Rain 74 23.3 70 21.1 88 88 VRB 3 6 30.00 1016 5 8 0.00 0.03
1:53 pm 13:53 Cloudy 75 23.9 70 21.1 84 84 Calm 29.98 1015 8 13 0.00 0.03
2:53 pm 14:53 Mostly Cloudy 76 24.4 70 21.1 82 82 Calm 29.98 1015 8 13 0.00 0.00
3:53 pm 15:53 Mostly Cloudy 79 26.1 69 20.6 72 72 Calm 29.97 1015 8 13 0.00 0.03
4:53 pm 16:53 Sunny 80 26.7 70 21.1 71 71 N 9 15 29.96 1015 8 13 0.00 0.00
5:53 pm 17:53 Mostly Sunny 78 25.6 71 21.7 79 79 ENE 5 7 29.94 1014 7 11 0.00 0.00
6:53 pm 18:53 Sunny 76 24.4 71 21.7 85 85 ESE 3 6 29.94 1014 7 11 0.00 0.00
7:53 pm 19:53 Sunny 75 23.9 71 21.7 88 88 S 3 6 29.92 1013 7 11 0.00 0.00
8:53 pm 20:53 Clear 74 23.3 71 21.7 91 91 Calm 29.91 1013 8 13 0.00 0.00
9:53 pm 21:53 Clear 74 23.3 70 21.1 88 88 SSE 3 6 29.91 1013 8 13 0.00 0.00
10:53 pm 22:53 Clear 75 23.9 70 21.1 84 84 S 5 7 29.93 1014 8 13 0.00 0.00
11:53 pm 23:53 Clear 74 23.3 70 21.1 88 88 SSE 3 6 29.93 1013 8 13 0.00 0.00

Powered by AerisWeather